Weather History for KORE - March, 2013

Change the Weather History Date:

Tuesday, March 19, 2013

  Actual Average Record
Temperature  
Mean Temperature 30 °F -  
Max Temperature 34 °F 39 °F 75 °F (2012)
Min Temperature 26 °F 21 °F 8 °F (2015)
Degree Days  
Heating Degree Days 35    
Moisture  
Dew Point 28 °F    
Average Humidity 91    
Maximum Humidity 100    
Minimum Humidity 79    
Precipitation  
Precipitation 0.66 in - - ()
Sea Level Pressure  
Sea Level Pressure 29.83 in    
Wind  
Wind Speed 5 mph (NNE)    
Max Wind Speed 16 mph    
Max Gust Speed 23 mph    
Visibility 2 miles    
Events Fog , Snow    
Averages and records for this station are not official NWS values.
T = Trace of Precipitation, MM = Missing Value Source: NWS Daily Summary

Daily Weather History Graph

Daily Weather History Graph

Search for Another Location

Airport or City:

Trip Planner

Search our weather history database for the weather conditions in past years. The results will help you decide how hot, cold, wet, or windy it might be!

Date:

Astronomy

Mar. 19, 2013 Rise Set
Actual Time 6:53 AM EDT 7:00 PM EDT
Civil Twilight 6:25 AM EDT 7:28 PM EDT
Nautical Twilight 5:52 AM EDT 8:01 PM EDT
Astronomical Twilight 5:19 AM EDT 8:35 PM EDT
Moon 11:34 AM EDT (3/19) 1:52 AM EDT (3/19)
Length of Visible Light 13h 02m
Length of Day
12h 06m
Waxing Crescent, 49% of the Moon is Illuminated
Mar 19
Waxing Crescent
Mar 19
First Quarter
Mar 27
Full
Apr 3
Last Quarter
Apr 10
New

Hourly Weather History & Observations

Time (EDT) Temp. Windchill Dew Point Humidity Pressure Visibility Wind Dir Wind Speed Gust Speed Precip Events Conditions
12:00 AM 28.4 °F 23.3 °F 24.8 °F 86% 30.17 in 1.2 mi East 4.6 mph - 0.00 in Snow Light Snow
12:19 AM 28.4 °F 24.6 °F 24.8 °F 86% 30.16 in 1.0 mi East 3.5 mph - 0.01 in Snow Light Snow
12:26 AM 28.4 °F 23.3 °F 24.8 °F 86% 30.15 in 1.2 mi East 4.6 mph - 0.02 in Snow Light Snow
12:28 AM 26.6 °F 21.2 °F 24.8 °F 93% 30.15 in 1.0 mi East 4.6 mph - 0.02 in Snow Light Snow
1:17 AM 26.6 °F 21.2 °F 24.8 °F 93% 30.11 in 0.8 mi East 4.6 mph - 0.02 in Snow Light Snow
2:52 AM 27.0 °F 23.0 °F 25.0 °F 92% 30.08 in 1.0 mi East 3.5 mph - 0.07 in Snow Light Snow
3:52 AM 27.0 °F 23.0 °F 25.0 °F 92% 30.05 in 1.0 mi NNE 3.5 mph - 0.09 in Snow Light Snow
4:04 AM 26.6 °F - 24.8 °F 93% 30.02 in 0.8 mi Calm Calm - 0.02 in Snow Light Snow
4:15 AM 26.6 °F - 24.8 °F 93% 30.01 in 0.5 mi Calm Calm - 0.04 in Fog , Snow Snow
4:52 AM 27.0 °F - 26.1 °F 96% 30.03 in 0.8 mi Calm Calm - 0.12 in Snow Light Snow
5:10 AM 26.6 °F - 26.6 °F 100% 30.00 in 1.0 mi Calm Calm - 0.03 in Snow Light Snow
5:23 AM 26.6 °F 22.6 °F 26.6 °F 100% 29.99 in 0.8 mi NE 3.5 mph - 0.05 in Snow Light Snow
5:34 AM 28.4 °F 24.6 °F 26.6 °F 93% 29.99 in 1.2 mi NNE 3.5 mph - 0.06 in Snow Light Snow
5:44 AM 28.4 °F - 26.6 °F 93% 29.99 in 1.5 mi Calm Calm - 0.06 in Snow Light Snow
5:52 AM 28.0 °F 24.2 °F 26.1 °F 92% 30.01 in 1.2 mi NE 3.5 mph - 0.07 in Snow Light Snow
6:13 AM 28.4 °F 24.6 °F 26.6 °F 93% 29.97 in 1.5 mi NE 3.5 mph - 0.02 in Snow Light Snow
6:23 AM 28.4 °F 23.3 °F 26.6 °F 93% 29.96 in 1.5 mi Variable 4.6 mph - 0.02 in Snow Light Snow
6:52 AM 28.0 °F - 26.1 °F 92% 29.97 in 1.5 mi Calm Calm - 0.03 in Snow Light Snow
7:06 AM 28.4 °F - 26.6 °F 93% 29.95 in 1.0 mi Calm Calm - 0.01 in Snow Light Snow
7:16 AM 28.4 °F 24.6 °F 26.6 °F 93% 29.94 in 0.8 mi NE 3.5 mph - 0.01 in Snow Light Snow
7:34 AM 28.4 °F 22.2 °F 26.6 °F 93% 29.93 in 1.2 mi East 5.8 mph - 0.03 in Snow Light Snow
7:48 AM 28.4 °F 24.6 °F 26.6 °F 93% 29.92 in 2.0 mi East 3.5 mph - 0.03 in Snow Light Snow
7:49 AM 28.9 °F - 27.0 °F 92% 29.94 in 2.0 mi Calm Calm - 0.03 in Snow Light Snow
8:17 AM 30.2 °F 23.4 °F 26.6 °F 86% 29.91 in 3.0 mi East 6.9 mph - 0.01 in   Overcast
8:52 AM 30.0 °F 25.2 °F 27.0 °F 88% 29.91 in 2.5 mi Variable 4.6 mph - 0.01 in   Overcast
9:28 AM 30.2 °F 25.4 °F 28.4 °F 93% 29.88 in 1.8 mi East 4.6 mph - 0.02 in Snow Light Snow
9:36 AM 30.2 °F - 28.4 °F 93% 29.88 in 2.0 mi Calm Calm - 0.02 in Snow Light Snow
9:50 AM 30.2 °F 23.4 °F 28.4 °F 93% 29.87 in 2.0 mi Variable 6.9 mph - 0.03 in   Overcast
9:52 AM 30.9 °F 27.5 °F 27.0 °F 85% 29.89 in 2.0 mi East 3.5 mph - 0.03 in   Overcast
9:59 AM 30.2 °F 25.4 °F 28.4 °F 93% 29.87 in 1.8 mi NE 4.6 mph - 0.00 in Snow Light Snow
10:12 AM 30.2 °F - 28.4 °F 93% 29.87 in 1.2 mi Calm Calm - 0.01 in Snow Light Snow
10:21 AM 30.2 °F - 28.4 °F 93% 29.86 in 1.5 mi Calm Calm - 0.01 in Snow Light Snow
10:31 AM 32.0 °F 26.4 °F 28.4 °F 87% 29.86 in 2.0 mi Variable 5.8 mph - 0.01 in Snow Light Snow
10:49 AM 32.0 °F 24.8 °F 28.4 °F 87% 29.83 in 3.0 mi ENE 8.1 mph - 0.01 in   Overcast
10:52 AM 32.0 °F 24.8 °F 28.0 °F 85% 29.85 in 3.0 mi East 8.1 mph - 0.01 in   Overcast
11:52 AM 34.0 °F 27.2 °F 28.0 °F 79% 29.81 in 10.0 mi ENE 8.1 mph 18.4 mph 0.00 in   Overcast
12:52 PM 34.0 °F 28.0 °F 28.9 °F 82% 29.79 in 6.0 mi Variable 6.9 mph - 0.00 in   Haze
1:18 PM 33.8 °F 26.4 °F 28.4 °F 81% 29.79 in 1.8 mi NNW 9.2 mph - 0.02 in Snow Light Snow
1:23 PM 33.8 °F 25.8 °F 30.2 °F 87% 29.81 in 1.0 mi NW 10.4 mph - 0.03 in Snow Light Snow
1:39 PM 33.8 °F 26.4 °F 30.2 °F 87% 29.79 in 0.8 mi NNE 9.2 mph - 0.07 in Snow Light Snow
1:52 PM 32.0 °F 24.8 °F 30.9 °F 96% 29.81 in 0.5 mi North 8.1 mph - 0.09 in Fog , Snow Snow
2:08 PM 33.8 °F 27.0 °F 30.2 °F 87% 29.76 in 0.5 mi NNE 8.1 mph - 0.01 in Fog , Snow Snow
2:35 PM 33.8 °F 28.6 °F 30.2 °F 87% 29.75 in 0.5 mi North 5.8 mph - 0.04 in Fog , Snow Snow
2:52 PM 32.0 °F 23.6 °F 30.9 °F 96% 29.72 in 1.0 mi ENE 10.4 mph - 0.05 in Snow Light Snow
3:01 PM 32.0 °F 24.8 °F 30.2 °F 93% 29.66 in 0.8 mi ENE 8.1 mph 19.6 mph 0.00 in Snow Light Snow
3:23 PM 33.8 °F 29.6 °F 30.2 °F 87% 29.66 in 1.2 mi Variable 4.6 mph 21.9 mph 0.01 in Snow Light Snow
3:40 PM 33.8 °F 27.0 °F 30.2 °F 87% 29.66 in 1.5 mi NNE 8.1 mph - 0.01 in Snow Light Snow
3:45 PM 33.8 °F 30.8 °F 30.2 °F 87% 29.67 in 2.0 mi Variable 3.5 mph - 0.01 in Snow Light Snow
3:50 PM 33.8 °F 25.3 °F 28.4 °F 81% 29.68 in 4.0 mi North 11.5 mph 23.0 mph 0.01 in Snow Light Snow
3:52 PM 34.0 °F 23.8 °F 28.9 °F 82% 29.70 in 4.0 mi NNE 16.1 mph 23.0 mph 0.01 in Snow Light Snow
3:59 PM 33.8 °F 27.0 °F 28.4 °F 81% 29.68 in 8.0 mi North 8.1 mph 23.0 mph 0.00 in Snow Light Snow
4:52 PM 33.1 °F 28.7 °F 28.9 °F 85% 29.68 in 9.0 mi North 4.6 mph - 0.00 in   Overcast
5:36 PM 33.8 °F 27.0 °F 30.2 °F 87% 29.66 in 2.0 mi North 8.1 mph - 0.00 in Snow Light Snow
5:45 PM 32.0 °F 25.6 °F 30.2 °F 93% 29.67 in 1.8 mi NW 6.9 mph - 0.00 in Snow Light Snow
5:52 PM 32.0 °F 24.8 °F 30.0 °F 92% 29.70 in 1.2 mi NW 8.1 mph - 0.00 in Snow Light Snow
5:59 PM 32.0 °F 25.6 °F 30.2 °F 93% 29.67 in 1.5 mi NNW 6.9 mph - 0.00 in Snow Light Snow
6:07 PM 32.0 °F 27.5 °F 30.2 °F 93% 29.67 in 1.2 mi NNW 4.6 mph - 0.00 in Snow Light Snow
6:12 PM 32.0 °F 26.4 °F 30.2 °F 93% 29.67 in 1.0 mi NNW 5.8 mph - 0.00 in Snow Light Snow
6:22 PM 32.0 °F 25.6 °F 30.2 °F 93% 29.67 in 0.8 mi NNW 6.9 mph - 0.01 in Snow Light Snow
6:39 PM 32.0 °F 25.6 °F 30.2 °F 93% 29.68 in 0.5 mi NNW 6.9 mph - 0.02 in Fog , Snow Snow
6:52 PM 30.9 °F 24.3 °F 30.0 °F 96% 29.71 in 0.8 mi NW 6.9 mph - 0.03 in Snow Light Snow
6:59 PM 30.2 °F 22.6 °F 30.2 °F 100% 29.69 in 0.8 mi NNW 8.1 mph - 0.00 in Snow Light Snow
7:09 PM 30.2 °F 22.6 °F 30.2 °F 100% 29.69 in 1.2 mi NW 8.1 mph - 0.00 in Snow Light Snow
7:18 PM 30.2 °F 22.6 °F 28.4 °F 93% 29.69 in 1.8 mi NNW 8.1 mph - 0.01 in Snow Light Snow
7:28 PM 30.2 °F 24.3 °F 28.4 °F 93% 29.68 in 2.0 mi NNW 5.8 mph - 0.01 in Snow Light Snow
7:50 PM 30.2 °F 23.4 °F 28.4 °F 93% 29.68 in 3.0 mi North 6.9 mph - 0.01 in Snow Light Snow
7:52 PM 30.9 °F 25.2 °F 28.9 °F 92% 29.70 in 4.0 mi North 5.8 mph - 0.01 in Snow Light Snow
8:02 PM 30.2 °F 22.6 °F 28.4 °F 93% 29.68 in 8.0 mi NNW 8.1 mph - 0.00 in   Overcast
8:45 PM 30.2 °F 25.4 °F 28.4 °F 93% 29.71 in 3.0 mi NW 4.6 mph - 0.00 in Snow Light Snow
8:52 PM 30.9 °F 25.2 °F 28.9 °F 92% 29.74 in 2.5 mi NW 5.8 mph - 0.00 in Snow Light Snow
9:00 PM 30.2 °F 24.3 °F 28.4 °F 93% 29.72 in 3.0 mi NNW 5.8 mph - 0.00 in Snow Light Snow
9:52 PM 28.9 °F 23.9 °F 27.0 °F 92% 29.73 in 10.0 mi NW 4.6 mph - 0.00 in   Overcast
10:52 PM 30.0 °F 24.1 °F 26.1 °F 85% 29.74 in 10.0 mi NNW 5.8 mph - N/A   Overcast
10:59 PM 30.2 °F 23.4 °F 26.6 °F 86% 29.72 in 3.0 mi NNW 6.9 mph - 0.00 in Snow Light Snow
11:08 PM 28.4 °F 20.4 °F 26.6 °F 93% 29.72 in 1.8 mi NNW 8.1 mph - 0.01 in Snow Light Snow
11:19 PM 28.4 °F 22.2 °F 26.6 °F 93% 29.71 in 3.0 mi NNW 5.8 mph - 0.01 in Snow Light Snow
11:40 PM 28.4 °F 24.6 °F 26.6 °F 93% 29.72 in 7.0 mi NNW 3.5 mph - 0.01 in   Overcast
11:52 PM 28.0 °F 24.2 °F 25.0 °F 88% 29.74 in 9.0 mi NNW 3.5 mph - 0.01 in   Overcast